Terug naar catalogus

KUIPER-00151

ActiefCommunicatieLEO
NORAD 65771·PAYLOAD·🇺🇸 United States

Gelanceerd Sep 25, 2025 vanaf Cape Canaveral Space Force Station

Loading…

Volgende Passages (komende 24 uur)

TLE

VersSource: CelesTrak SupGP

Epoch: Sep 15, 2026, 02:10 UTC

1 65771C 25217K   26258.09075232  .00000578  00000+0  75711-4 0  2586
2 65771  51.9000 285.5934 0000515  67.6648  39.2706 14.79928157    18

Volg KUIPER-00151 in realtime met AllMySat

Download on the App Store